This is the latest recevied weather packets stored in our database for station/object VU3CAM-13. If no packets are shown the sender has not sent any weather packets the latest 10 day(s).
| Time | Temp. | Humidity | Pressure | Rain* | Wind** | Luminosity | Snow |
|---|---|---|---|---|---|---|---|
| 1788375722 | 26.67° C | 62% | 912.2 hPa | - | - | - | - |
| 1788375122 | 27.22° C | 62% | 912.3 hPa | - | - | - | - |
| 1788374522 | 27.22° C | 63% | 912.5 hPa | - | - | - | - |
| 1788373922 | 27.22° C | 64% | 912.7 hPa | - | - | - | - |
| 1788373322 | 27.22° C | 65% | 912.9 hPa | - | - | - | - |
| 1788372722 | 27.22° C | 66% | 913.1 hPa | - | - | - | - |
| 1788372121 | 27.78° C | 64% | 913.2 hPa | - | - | - | - |
| 1788371521 | 27.22° C | 65% | 913.2 hPa | - | - | - | - |
| 1788370921 | 27.78° C | 64% | 913.4 hPa | - | - | - | - |
| 1788370321 | 27.78° C | 64% | 913.5 hPa | - | - | - | - |
| 1788369721 | 27.78° C | 63% | 913.5 hPa | - | - | - | - |
| 1788369121 | 27.78° C | 63% | 913.4 hPa | - | - | - | - |
| 1788368521 | 27.78° C | 64% | 913.4 hPa | - | - | - | - |
| 1788367921 | 27.78° C | 64% | 913.4 hPa | - | - | - | - |
| 1788367321 | 27.78° C | 65% | 913.4 hPa | - | - | - | - |
| 1788366721 | 27.78° C | 64% | 913.4 hPa | - | - | - | - |
| 1788366121 | 27.78° C | 64% | 913.5 hPa | - | - | - | - |
| 1788365521 | 27.78° C | 64% | 913.4 hPa | - | - | - | - |
| 1788364921 | 27.78° C | 65% | 913.4 hPa | - | - | - | - |
| 1788364321 | 26.67° C | 71% | 913.4 hPa | - | - | - | - |
| 1788363721 | 26.67° C | 70% | 913.2 hPa | - | - | - | - |
| 1788363121 | 28.33° C | 66% | 913.1 hPa | - | - | - | - |
| 1788362521 | 28.33° C | 66% | 913 hPa | - | - | - | - |
| 1788361921 | 28.33° C | 65% | 912.8 hPa | - | - | - | - |
| 1788361321 | 28.33° C | 65% | 912.8 hPa | - | - | - | - |
* Rain since midnight (hover to see other rain measurements)
** Current wind speed in m/s (hover to see current wind gust speed)